timestamp,wind_dir_avg,wind_spd_max_dir,wind_spd_avg,wind_spd_gust,battery_voltage,lat,long
2021-06-01 00:04:01+00:00,214.0,216.0,8.31,9.1,12.73,47.59359,-54.27349
2021-06-01 00:14:01+00:00,215.0,215.0,8.22,9.22,12.57,47.59359,-54.27349
2021-06-01 00:24:01+00:00,215.0,215.0,8.76,10.01,12.57,47.59359,-54.27349
2021-06-01 00:34:01+00:00,217.0,221.0,8.67,10.3,12.57,47.59359,-54.27349
2021-06-01 00:44:01+00:00,213.0,212.0,8.21,10.16,12.57,47.59359,-54.27349
2021-06-01 00:54:01+00:00,211.0,207.0,8.97,10.17,12.57,47.59359,-54.27349
2021-06-01 01:04:01+00:00,212.0,207.0,10.01,11.66,12.57,47.59359,-54.27349
2021-06-01 01:14:01+00:00,210.0,212.0,8.88,9.94,12.57,47.59359,-54.27349
2021-06-01 01:24:01+00:00,214.0,220.0,7.98,9.08,12.57,47.59359,-54.27349
2021-06-01 01:34:01+00:00,217.0,216.0,8.56,10.0,12.57,47.59359,-54.27349
2021-06-01 01:44:01+00:00,216.0,216.0,8.96,10.05,12.57,47.59359,-54.27349
2021-06-01 01:54:01+00:00,212.0,214.0,9.4,11.75,12.57,47.59359,-54.27349
2021-06-01 02:04:01+00:00,207.0,206.0,8.73,10.18,12.57,47.59359,-54.27349
2021-06-01 02:14:01+00:00,213.0,223.0,8.18,9.93,12.57,47.59359,-54.27349
2021-06-01 02:24:01+00:00,213.0,210.0,9.86,12.01,12.57,47.59359,-54.27349
2021-06-01 02:34:01+00:00,218.0,219.0,10.17,12.06,12.57,47.59359,-54.27349
2021-06-01 02:44:01+00:00,221.0,216.0,9.93,11.78,12.57,47.59359,-54.27349
2021-06-01 02:54:01+00:00,227.0,221.0,9.24,10.64,12.57,47.59359,-54.27349
2021-06-01 03:04:01+00:00,221.0,225.0,10.55,11.6,12.57,47.59359,-54.27349
2021-06-01 03:14:01+00:00,221.0,219.0,9.83,11.02,12.49,47.59359,-54.27349
2021-06-01 03:24:01+00:00,217.0,216.0,9.8,11.53,12.49,47.59359,-54.27349
2021-06-01 03:34:01+00:00,223.0,223.0,9.04,10.33,12.49,47.59359,-54.27349
2021-06-01 03:44:01+00:00,230.0,231.0,9.19,10.27,12.49,47.59359,-54.27349
2021-06-01 03:54:01+00:00,226.0,215.0,8.65,11.3,12.49,47.59359,-54.27349
2021-06-01 04:04:01+00:00,218.0,216.0,8.29,9.41,12.49,47.59359,-54.27349
2021-06-01 04:14:00+00:00,216.0,217.0,9.28,10.3,12.49,47.59359,-54.27349
2021-06-01 04:24:00+00:00,217.0,217.0,9.7,11.34,12.49,47.59359,-54.27349
2021-06-01 04:34:00+00:00,215.0,220.0,9.4,10.42,12.49,47.59359,-54.27349
2021-06-01 04:44:00+00:00,214.0,218.0,9.91,11.14,12.49,47.59359,-54.27349
2021-06-01 04:54:00+00:00,219.0,221.0,9.16,10.0,12.49,47.59359,-54.27349
2021-06-01 05:04:00+00:00,216.0,214.0,9.11,10.77,12.49,47.59359,-54.27349
2021-06-01 05:14:01+00:00,219.0,222.0,8.19,9.69,12.49,47.59359,-54.27349
2021-06-01 05:24:01+00:00,215.0,212.0,10.29,12.48,12.49,47.59359,-54.27349
2021-06-01 05:34:01+00:00,217.0,214.0,9.73,11.53,12.49,47.59359,-54.27349
2021-06-01 05:44:01+00:00,210.0,211.0,9.63,10.92,12.49,47.59359,-54.27349
2021-06-01 05:54:01+00:00,215.0,216.0,9.13,10.22,12.49,47.59359,-54.27349
2021-06-01 06:04:01+00:00,214.0,219.0,9.21,10.68,12.49,47.59359,-54.27349
2021-06-01 06:14:01+00:00,219.0,224.0,8.46,9.99,12.41,47.59359,-54.27349
2021-06-01 06:24:01+00:00,215.0,217.0,8.47,9.52,12.41,47.59359,-54.27349
2021-06-01 06:34:01+00:00,220.0,226.0,7.69,8.23,12.41,47.59359,-54.27349
2021-06-01 06:44:01+00:00,218.0,220.0,7.38,8.31,12.41,47.59359,-54.27349
2021-06-01 06:54:01+00:00,222.0,228.0,7.51,8.63,12.41,47.59359,-54.27349
2021-06-01 07:04:01+00:00,222.0,220.0,6.0,6.98,12.41,47.59359,-54.27349
2021-06-01 07:14:01+00:00,224.0,226.0,5.55,6.27,12.41,47.59359,-54.27349
2021-06-01 07:24:01+00:00,228.0,230.0,6.58,8.04,12.41,47.59359,-54.27349
2021-06-01 07:34:01+00:00,226.0,223.0,6.25,7.4,12.41,47.59359,-54.27349
2021-06-01 07:44:01+00:00,230.0,228.0,7.37,8.9,12.41,47.59359,-54.27349
2021-06-01 07:54:01+00:00,227.0,234.0,6.5,7.2,12.41,47.59359,-54.27349
2021-06-01 08:04:01+00:00,227.0,229.0,4.66,5.75,12.41,47.59359,-54.27349
2021-06-01 08:14:01+00:00,222.0,229.0,5.85,7.37,12.41,47.59359,-54.27349
2021-06-01 08:24:01+00:00,214.0,206.0,7.56,9.02,12.41,47.59359,-54.27349
2021-06-01 08:34:01+00:00,219.0,216.0,6.59,7.53,12.41,47.59359,-54.27349
2021-06-01 08:44:01+00:00,222.0,217.0,5.59,6.91,12.41,47.59359,-54.27349
2021-06-01 08:54:01+00:00,224.0,231.0,5.1,6.39,12.41,47.59359,-54.27349
2021-06-01 09:04:01+00:00,215.0,215.0,7.53,8.49,12.41,47.59359,-54.27349
2021-06-01 09:14:01+00:00,215.0,215.0,6.89,7.84,12.41,47.59359,-54.27349
2021-06-01 09:24:01+00:00,221.0,225.0,5.49,6.4,12.41,47.59359,-54.27349
2021-06-01 09:34:01+00:00,212.0,211.0,4.8,5.7,12.41,47.59359,-54.27349
2021-06-01 09:44:01+00:00,205.0,208.0,4.07,5.14,12.41,47.59359,-54.27349
2021-06-01 09:54:01+00:00,222.0,224.0,4.36,5.22,12.41,47.59359,-54.27349
2021-06-01 10:04:01+00:00,218.0,218.0,5.42,6.2,12.41,47.59359,-54.27349
2021-06-01 10:14:01+00:00,225.0,231.0,8.98,10.22,12.57,47.59359,-54.27349
2021-06-01 10:24:01+00:00,227.0,216.0,6.02,7.16,12.57,47.59359,-54.27349
2021-06-01 10:34:01+00:00,232.0,235.0,8.78,10.41,12.57,47.59359,-54.27349
2021-06-01 10:44:01+00:00,222.0,227.0,8.91,10.91,12.57,47.59359,-54.27349
2021-06-01 10:54:01+00:00,221.0,219.0,7.51,8.83,12.57,47.59359,-54.27349
2021-06-01 11:04:01+00:00,209.0,207.0,7.36,8.32,12.57,47.59359,-54.27349
2021-06-01 11:14:00+00:00,216.0,216.0,8.55,9.58,13.37,47.59359,-54.27349
2021-06-01 11:24:00+00:00,213.0,211.0,9.32,10.5,13.37,47.59359,-54.27349
2021-06-01 11:34:00+00:00,216.0,216.0,8.81,10.27,13.37,47.59359,-54.27349
2021-06-01 11:44:00+00:00,216.0,215.0,8.09,9.07,13.37,47.59359,-54.27349
2021-06-01 11:54:00+00:00,220.0,220.0,7.35,8.15,13.37,47.59359,-54.27349
2021-06-01 12:04:00+00:00,220.0,221.0,6.72,7.67,13.37,47.59359,-54.27349
2021-06-01 12:14:01+00:00,227.0,230.0,7.6,8.92,13.6,47.59359,-54.27349
2021-06-01 12:24:01+00:00,226.0,225.0,8.84,10.49,13.6,47.59359,-54.27349
2021-06-01 12:34:01+00:00,218.0,217.0,10.28,12.04,13.6,47.59359,-54.27349
2021-06-01 12:44:01+00:00,210.0,218.0,9.77,11.25,13.6,47.59359,-54.27349
2021-06-01 12:54:01+00:00,207.0,210.0,9.28,10.59,13.6,47.59359,-54.27349
2021-06-01 13:04:01+00:00,208.0,208.0,9.93,11.5,13.6,47.59359,-54.27349
2021-06-01 13:14:01+00:00,206.0,208.0,9.57,10.62,13.29,47.59359,-54.27349
2021-06-01 13:24:01+00:00,209.0,209.0,9.69,11.82,13.29,47.59359,-54.27349
2021-06-01 13:34:01+00:00,210.0,213.0,8.93,10.87,13.29,47.59359,-54.27349
2021-06-01 13:44:01+00:00,208.0,213.0,8.89,10.7,13.29,47.59359,-54.27349
2021-06-01 13:54:01+00:00,209.0,208.0,7.73,9.34,13.29,47.59359,-54.27349
2021-06-01 14:04:01+00:00,208.0,208.0,9.39,11.04,13.29,47.59359,-54.27349
2021-06-01 14:14:01+00:00,209.0,212.0,9.67,11.22,13.84,47.59359,-54.27349
2021-06-01 14:24:01+00:00,204.0,204.0,10.3,11.64,13.84,47.59359,-54.27349
2021-06-01 14:34:01+00:00,201.0,197.0,9.88,11.45,13.84,47.59359,-54.27349
2021-06-01 14:44:01+00:00,207.0,213.0,10.53,11.59,13.84,47.59359,-54.27349
2021-06-01 14:54:01+00:00,211.0,215.0,11.76,13.79,13.84,47.59359,-54.27349
2021-06-01 15:04:01+00:00,213.0,217.0,12.08,14.37,13.84,47.59359,-54.27349
2021-06-01 15:14:01+00:00,210.0,205.0,11.46,13.51,13.76,47.59359,-54.27349
2021-06-01 15:24:01+00:00,210.0,211.0,12.81,14.52,13.76,47.59359,-54.27349
2021-06-01 15:34:01+00:00,217.0,215.0,12.77,15.89,13.76,47.59359,-54.27349
2021-06-01 15:44:01+00:00,221.0,223.0,9.98,11.81,13.76,47.59359,-54.27349
2021-06-01 15:54:01+00:00,217.0,217.0,10.72,12.29,13.76,47.59359,-54.27349
2021-06-01 16:04:01+00:00,222.0,225.0,9.28,10.54,13.76,47.59359,-54.27349
2021-06-01 16:14:01+00:00,217.0,217.0,11.73,13.25,13.76,47.59359,-54.27349
2021-06-01 16:24:01+00:00,214.0,215.0,11.26,13.26,13.76,47.59359,-54.27349
2021-06-01 16:34:01+00:00,212.0,212.0,10.81,12.48,13.76,47.59359,-54.27349
2021-06-01 16:44:01+00:00,217.0,217.0,10.0,11.57,13.76,47.59359,-54.27349
2021-06-01 16:54:01+00:00,219.0,220.0,10.73,11.84,13.76,47.59359,-54.27349
2021-06-01 17:04:01+00:00,214.0,224.0,10.34,12.94,13.76,47.59359,-54.27349
2021-06-01 17:14:01+00:00,213.0,216.0,9.39,10.29,13.76,47.59359,-54.27349
2021-06-01 17:24:01+00:00,210.0,212.0,11.45,12.56,13.76,47.59359,-54.27349
2021-06-01 17:34:01+00:00,210.0,213.0,12.1,13.5,13.76,47.59359,-54.27349
2021-06-01 17:44:01+00:00,212.0,212.0,11.21,13.78,13.76,47.59359,-54.27349
2021-06-01 17:54:01+00:00,212.0,214.0,12.52,13.83,13.76,47.59359,-54.27349
2021-06-01 18:04:01+00:00,212.0,216.0,11.77,13.59,13.76,47.59359,-54.27349
2021-06-01 18:14:01+00:00,208.0,207.0,11.64,12.94,13.92,47.59359,-54.27349
2021-06-01 18:24:01+00:00,207.0,208.0,12.7,14.45,13.92,47.59359,-54.27349
2021-06-01 18:34:01+00:00,208.0,206.0,13.5,15.63,13.92,47.59359,-54.27349
2021-06-01 18:44:01+00:00,208.0,210.0,13.62,15.52,13.92,47.59359,-54.27349
2021-06-01 18:54:01+00:00,206.0,206.0,14.16,16.15,13.92,47.59359,-54.27349
2021-06-01 19:04:01+00:00,211.0,214.0,14.04,15.61,13.92,47.59359,-54.27349
2021-06-01 19:14:01+00:00,212.0,214.0,13.81,16.14,13.84,47.59359,-54.27349
2021-06-01 19:24:01+00:00,216.0,218.0,13.11,14.79,13.84,47.59359,-54.27349
2021-06-01 19:34:01+00:00,219.0,216.0,12.06,13.71,13.84,47.59359,-54.27349
2021-06-01 19:44:01+00:00,222.0,228.0,11.61,13.08,13.84,47.59359,-54.27349
2021-06-01 19:54:01+00:00,218.0,215.0,11.38,12.81,13.84,47.59359,-54.27349
2021-06-01 20:04:01+00:00,222.0,218.0,10.18,11.49,13.84,47.59359,-54.27349
2021-06-01 20:14:01+00:00,223.0,225.0,8.95,10.43,13.6,47.59359,-54.27349
2021-06-01 20:24:01+00:00,223.0,222.0,8.82,10.59,13.6,47.59359,-54.27349
2021-06-01 20:34:01+00:00,222.0,222.0,9.23,10.32,13.6,47.59359,-54.27349
2021-06-01 20:44:01+00:00,222.0,220.0,9.07,10.53,13.6,47.59359,-54.27349
2021-06-01 20:54:01+00:00,217.0,217.0,10.26,11.81,13.6,47.59359,-54.27349
2021-06-01 21:04:01+00:00,210.0,205.0,9.73,11.0,13.6,47.59359,-54.27349
2021-06-01 21:14:01+00:00,211.0,211.0,9.25,10.75,13.6,47.59359,-54.27349
2021-06-01 21:24:01+00:00,213.0,212.0,8.81,9.71,13.6,47.59359,-54.27349
2021-06-01 21:34:01+00:00,209.0,207.0,8.63,9.53,13.6,47.59359,-54.27349
2021-06-01 21:44:01+00:00,209.0,207.0,8.93,9.82,13.6,47.59359,-54.27349
2021-06-01 21:54:01+00:00,210.0,212.0,8.54,9.22,13.6,47.59359,-54.27349
2021-06-01 22:04:01+00:00,207.0,204.0,8.98,9.75,13.6,47.59359,-54.27349
2021-06-01 22:14:01+00:00,211.0,212.0,8.64,9.72,13.29,47.59359,-54.27349
2021-06-01 22:24:01+00:00,211.0,222.0,9.21,10.12,13.29,47.59359,-54.27349
2021-06-01 22:34:01+00:00,234.0,235.0,9.81,11.58,13.29,47.59359,-54.27349
2021-06-01 22:44:01+00:00,240.0,238.0,9.62,10.4,13.29,47.59359,-54.27349
2021-06-01 22:54:01+00:00,243.0,246.0,10.06,11.84,13.29,47.59359,-54.27349
2021-06-01 23:04:01+00:00,238.0,236.0,9.23,10.63,13.29,47.59359,-54.27349
2021-06-01 23:14:00+00:00,240.0,242.0,8.95,10.23,13.21,47.59359,-54.27349
2021-06-01 23:24:00+00:00,241.0,246.0,7.95,10.1,13.21,47.59359,-54.27349
2021-06-01 23:34:00+00:00,248.0,250.0,7.64,8.55,13.21,47.59359,-54.27349
2021-06-01 23:44:00+00:00,245.0,248.0,8.38,10.22,13.21,47.59359,-54.27349
2021-06-01 23:54:00+00:00,241.0,241.0,8.28,9.01,13.21,47.59359,-54.27349
